Regional Weather Roundup
Issued by NWS

Home | Current Version | Previous Version | Graphics & Text | Print | Product List | Glossary On
Versions: 1 2 3 4 5 6 7 8 9 10 11 12 13 14 15 16 17 18 19 20 21 22 23 24 25 26 27 28 29 30 31 32 33 34 35 36 37 38 39 40 41 42 43 44 45 46 47 48 49 50
000
ASUS43 KFSD 200202
RWRSD

WEATHER ROUNDUP FOR SOUTH DAKOTA
NATIONAL WEATHER SERVICE SIOUX FALLS SD
800 PM CST FRI DEC 19 2014

NOTE: "FAIR" INDICATES FEW OR NO CLOUDS BELOW 12,000 FEET WITH NO
SIGNIFICANT WEATHER AND/OR OBSTRUCTIONS TO VISIBILITY.


SDZ001>005-009-010-012>017-200300-
NORTHWEST AND NORTH CENTRAL SOUTH DAKOTA

CITY           SKY/WX    TMP DP  RH WIND       PRES   REMARKS
BUFFALO          N/A     36  23  59 W3        29.84S
FAITH            N/A     29  24  82 S10       29.93S WCI  20
MOBRIDGE       CLEAR     26  23  88 SE8       29.91F WCI  18
$$

SDZ012>016-024>037-041>051-057-063-072>074-200300-
SOUTHWEST AND SOUTH CENTRAL SOUTH DAKOTA

CITY           SKY/WX    TMP DP  RH WIND       PRES   REMARKS
RAPID CTY ARPT CLEAR     28  21  75 CALM      29.93S
PIERRE         PTCLDY    19  18  95 CALM      29.97S
CUSTER         PTCLDY    26  16  65 W3        29.92S
ELLSWORTH AFB  CLEAR     32  24  71 SW5       29.92S WCI  27
PHILIP         CLEAR     25  20  81 W6        29.96R WCI  18
PINE RIDGE     CLEAR     25  19  78 CALM      29.97S
WINNER         FAIR      25  20  81 SW8       29.98S WCI  16
$$

SDZ004>011-016>023-039-040-200300-
NORTHEAST SOUTH DAKOTA

CITY           SKY/WX    TMP DP  RH WIND       PRES   REMARKS
ABERDEEN       CLOUDY    30  26  85 S13       30.01F WCI  20
WATERTOWN      CLOUDY    28  27  96 S16       30.02S FOG     WCI  16
SISSETON         N/A     30  29  96 S10       30.02F WCI  21
$$

SDZ017-020-022-023-036>040-048>070-200300-
SOUTHEAST SOUTH DAKOTA

CITY           SKY/WX    TMP DP  RH WIND       PRES   REMARKS
SIOUX FALLS    CLOUDY    31  28  89 S10       30.08S WCI  22
HURON          CLOUDY    30  27  88 S14       30.03S WCI  19
MITCHELL       CLOUDY    30  28  92 S10       30.06S FOG     WCI  21
YANKTON        CLOUDY    32  28  86 SE7       30.08S WCI  26
$$

ABBREVIATIONS USED IN REMARKS
   TC - TEMPERATURE IN CELSIUS
  WCI - WIND CHILL INDEX
   HX - HEAT INDEX
  VSB - VISIBILITY




USA.gov is the U.S. government's official web portal to all federal, state and local government web resources and services.